Location: D�pe
(52.6057°N, 8.1808°E)
Time: 07:51:49
(UTC+00:00)

SL-08 RB Rocket - Pass Details

Date: 29 October 2020
Orbit: 648 x 683 km, 97.8° (Epoch: 01 December)

Event Time Altitude Azimuth Distance (km) Brightness Sun altitude
Exits shadow 18:26:07 55° 49° (NE) 789 3.8 -22.3°
Drops below altitude 10° 18:30:12 10° 353° (N) 2,081 6.4 -22.9°
Sets 18:32:28 0° 349° (N) 3,003 7.3 -23.2°
